TimeCDT,TemperatureF,Dew PointF,Humidity,Sea Level PressureIn,VisibilityMPH,Wind Direction,Wind SpeedMPH,Gust SpeedMPH,PrecipitationIn,Events,Conditions,WindDirDegrees,DateUTC
12:58 AM,56.7,54.5,92,30.21,10.0,ESE,6.9,-,N/A,,Clear,120,2013-09-06 05:58:00
1:58 AM,56.5,54.1,92,30.19,10.0,SE,4.6,-,N/A,,Clear,130,2013-09-06 06:58:00
2:58 AM,53.4,52.2,95,30.20,10.0,SE,1.2,-,N/A,,Clear,130,2013-09-06 07:58:00
3:58 AM,52.0,51.4,98,30.21,10.0,ESE,3.5,-,N/A,,Clear,120,2013-09-06 08:58:00
4:58 AM,50.9,50.2,97,30.21,10.0,ESE,1.2,-,N/A,,Clear,120,2013-09-06 09:58:00
5:58 AM,53.8,48.9,84,30.20,10.0,ESE,5.8,-,N/A,,Clear,120,2013-09-06 10:58:00
6:58 AM,53.6,50.0,88,30.20,10.0,East,3.5,-,N/A,,Mostly Cloudy,90,2013-09-06 11:58:00
7:58 AM,57.2,51.8,82,30.18,10.0,ESE,2.3,-,N/A,,Scattered Clouds,110,2013-09-06 12:58:00
8:58 AM,64.4,50.0,59,30.17,10.0,Variable,2.3,-,N/A,,Partly Cloudy,0,2013-09-06 13:58:00
9:58 AM,69.8,53.6,56,30.15,10.0,South,6.9,-,N/A,,Partly Cloudy,180,2013-09-06 14:58:00
10:58 AM,75.2,57.2,53,30.14,10.0,SE,5.8,-,N/A,,Partly Cloudy,130,2013-09-06 15:58:00
11:58 AM,78.8,59.0,51,30.11,10.0,Variable,5.8,-,N/A,,Partly Cloudy,0,2013-09-06 16:58:00
12:58 PM,82.4,62.6,51,30.08,10.0,SSE,8.1,-,N/A,,Partly Cloudy,160,2013-09-06 17:58:00
1:58 PM,86.0,64.4,48,30.06,10.0,Variable,5.8,-,N/A,,Partly Cloudy,0,2013-09-06 18:58:00
2:58 PM,87.8,62.6,43,30.03,10.0,SW,12.7,20.7,N/A,,Partly Cloudy,220,2013-09-06 19:58:00
3:58 PM,87.8,64.4,46,30.01,10.0,SW,13.8,19.6,N/A,,Partly Cloudy,230,2013-09-06 20:58:00
4:58 PM,86.7,63.7,46,30.01,10.0,SW,9.2,-,N/A,,Clear,230,2013-09-06 21:58:00
5:58 PM,85.5,63.5,48,29.99,10.0,SSW,8.1,-,N/A,,Clear,210,2013-09-06 22:58:00
6:58 PM,82.6,63.7,53,29.98,10.0,SSW,8.1,-,N/A,,Clear,210,2013-09-06 23:58:00
7:58 PM,79.0,64.0,60,29.98,10.0,South,5.8,-,N/A,,Clear,190,2013-09-07 00:58:00
8:58 PM,73.0,64.4,74,29.98,10.0,South,4.6,-,N/A,,Clear,180,2013-09-07 01:58:00
9:58 PM,72.1,64.0,76,29.97,10.0,South,5.8,-,N/A,,Clear,180,2013-09-07 02:58:00
10:58 PM,72.0,63.3,74,29.96,10.0,SSE,4.6,-,N/A,,Clear,160,2013-09-07 03:58:00
11:58 PM,69.1,62.2,79,29.95,10.0,SSE,3.5,-,N/A,,Clear,150,2013-09-07 04:58:00